Location: Kelshall
(52.0000°N, 0.0500°W)
Time: 21:57:05
(UTC+00:00)

ATLAS 2AS CENTAUR R/B - Pass Details

Date: 18 January 2021
Orbit: 947 x 1265 km, 63.7° (Epoch: 13 February)

Event Time Altitude Azimuth Distance (km) Brightness Sun altitude
Rises 19:39:34 0° 267° (W) 4,222 7.0 -29.5°
Reaches altitude 10° 19:42:39 10° 275° (W) 3,249 6.1 -30.0°
Maximum altitude 19:49:57 39° 343° (NNW) 1,769 3.9 -31.1°
Enters shadow 19:52:09 33° 17° (NNE) 1,933 3.9 -31.4°
